Weather History for KRXE - May, 2013

Change the Weather History Date:

Tuesday, May 7, 2013

  Actual Average Record
Temperature  
Mean Temperature 54 °F 50 °F  
Max Temperature 71 °F 63 °F 78 °F (2004)
Min Temperature 37 °F 36 °F 22 °F (2010)
Degree Days  
Heating Degree Days 11 15  
Month to date heating degree days 117 113  
Since 1 July heating degree days 7461 7678  
Cooling Degree Days 0 0  
Month to date cooling degree days 0 0  
Year to date cooling degree days 0 0  
Growing Degree Days 3 (Base 50)    
Moisture  
Dew Point 39 °F    
Average Humidity 58    
Maximum Humidity 89    
Minimum Humidity 26    
Precipitation  
Precipitation 0.16 in 0.05 in 1.00 in (1993)
Month to date precipitation 0.20 0.37  
Year to date precipitation 3.21 4.48  
Sea Level Pressure  
Sea Level Pressure 29.90 in    
Wind  
Wind Speed 5 mph (South)    
Max Wind Speed 30 mph    
Max Gust Speed 37 mph    
Visibility 10 miles    
Events Rain , Thunderstorm    
T = Trace of Precipitation, MM = Missing Value Source: NWS Daily Summary

Daily Weather History Graph

Daily Weather History Graph

Search for Another Location

Airport or City:

Trip Planner

Search our weather history database for the weather conditions in past years. The results will help you decide how hot, cold, wet, or windy it might be!

Date:

Astronomy

May. 07, 2013 Rise Set
Actual Time 6:10 AM MDT 8:37 PM MDT
Civil Twilight 5:38 AM MDT 9:09 PM MDT
Nautical Twilight 4:58 AM MDT 9:50 PM MDT
Astronomical Twilight 4:12 AM MDT 10:36 PM MDT
Moon 4:51 AM MDT (5/7) 6:37 PM MDT (5/7)
Length of Visible Light 15h 31m
Length of Day
14h 26m
Waning Crescent, 5% of the Moon is Illuminated
May 7
Waning Crescent
May 9
New
May 17
First Quarter
May 24
Full
May 31
Last Quarter

Hourly Weather History & Observations

Time (MDT) Temp. Windchill Dew Point Humidity Pressure Visibility Wind Dir Wind Speed Gust Speed Precip Events Conditions
12:53 AM 51.1 °F - 37.0 °F 59% 29.86 in 10.0 mi NE 3.5 mph - N/A   Overcast
1:53 AM 48.9 °F - 37.0 °F 64% 29.86 in 10.0 mi SW 4.6 mph - N/A   Mostly Cloudy
2:53 AM 46.9 °F - 37.0 °F 68% 29.87 in 10.0 mi Calm Calm - N/A   Clear
3:53 AM 42.1 °F 39.2 °F 36.0 °F 79% 29.90 in 10.0 mi ENE 4.6 mph - N/A   Clear
4:53 AM 41.0 °F 37.1 °F 34.0 °F 76% 29.89 in 10.0 mi ENE 5.8 mph - N/A   Clear
5:53 AM 37.9 °F 33.5 °F 32.0 °F 79% 29.90 in 10.0 mi NE 5.8 mph - N/A   Clear
6:53 AM 39.0 °F 34.8 °F 33.1 °F 79% 29.91 in 10.0 mi NE 5.8 mph - N/A   Clear
7:53 AM 44.1 °F - 35.1 °F 71% 29.91 in 10.0 mi Calm Calm - N/A   Clear
8:53 AM 48.9 °F - 37.0 °F 64% 29.90 in 10.0 mi Calm Calm - N/A   Clear
9:53 AM 55.9 °F - 39.0 °F 53% 29.89 in 10.0 mi Calm Calm - N/A   Clear
10:53 AM 60.1 °F - 39.0 °F 46% 29.88 in 10.0 mi Variable 3.5 mph - N/A   Clear
11:53 AM 63.0 °F - 39.0 °F 41% 29.85 in 10.0 mi Calm Calm - N/A   Clear
12:53 PM 66.9 °F - 35.1 °F 31% 29.82 in 10.0 mi Calm Calm - N/A   Partly Cloudy
1:53 PM 69.1 °F - 33.1 °F 26% 29.79 in 10.0 mi North 5.8 mph - N/A   Clear
2:53 PM 69.1 °F - 33.1 °F 26% 29.80 in 10.0 mi SSW 4.6 mph - N/A   Mostly Cloudy
3:07 PM 66.2 °F - 41.0 °F 40% 29.88 in 10.0 mi SSW 25.3 mph 35.7 mph N/A Thunderstorm Thunderstorm
3:53 PM 53.1 °F - 46.9 °F 80% 29.90 in 5.0 mi SW 21.9 mph 31.1 mph 0.16 in Rain , Thunderstorm Light Thunderstorms and Rain
4:17 PM 53.6 °F - 46.4 °F 77% 29.95 in 10.0 mi SSW 20.7 mph 28.8 mph 0.00 in   Overcast
4:53 PM 53.1 °F - 44.1 °F 71% 29.91 in 10.0 mi SSW 18.4 mph 27.6 mph 0.00 in   Overcast
5:53 PM 55.0 °F - 43.0 °F 64% 29.91 in 10.0 mi SSW 13.8 mph - N/A   Clear
6:53 PM 54.0 °F - 43.0 °F 66% 29.95 in 10.0 mi South 9.2 mph - N/A   Clear
7:53 PM 52.0 °F - 43.0 °F 71% 29.95 in 10.0 mi SW 3.5 mph - N/A   Clear
8:53 PM 51.1 °F - 43.0 °F 74% 29.96 in 10.0 mi Calm Calm - N/A   Mostly Cloudy
9:53 PM 48.9 °F - 43.0 °F 80% 29.94 in 10.0 mi North 3.5 mph - N/A   Partly Cloudy
10:53 PM 52.0 °F - 42.1 °F 69% 29.95 in 10.0 mi ESE 3.5 mph - N/A   Partly Cloudy
11:53 PM 45.0 °F - 41.0 °F 86% 29.96 in 10.0 mi Calm Calm - N/A   Mostly Cloudy